Theta_e
317 316 313 300 287 285 283 288 292 293 293 299 301 298 298 303 301 295 314 332 338 339 344 347 349 352 353 352 352 352 353 354 355 354 354 353 353 353 353 353 353 353 353 351 350 347 346 345 345
314 314 304 291 282 278 282 289 291 296 299 298 296 296 296 298 303 310 321 331 340 342 345 346 346 351 352 351 351 352 352 353 355 354 354 353 353 352 352 352 351 351 351 349 346 345 345 344 344
317 313 295 289 281 280 283 289 293 297 298 297 294 298 297 299 304 313 322 336 340 341 344 346 345 350 351 351 351 351 352 352 354 354 354 353 353 352 352 351 351 350 350 348 346 343 342 343 343
310 303 296 283 281 286 288 286 293 292 294 296 294 293 298 304 306 317 327 338 338 340 343 343 346 350 350 350 350 351 351 352 353 353 353 353 353 352 351 350 350 349 348 347 345 343 342 341 341
303 295 288 283 285 288 289 291 291 291 291 292 293 292 294 303 315 325 327 334 336 337 341 342 345 348 349 350 350 350 350 351 351 352 352 352 351 350 349 349 348 347 347 344 343 341 340 340 340
296 291 281 283 285 290 291 293 291 291 293 294 292 293 295 300 320 324 327 327 337 337 339 343 339 343 346 347 348 348 349 349 350 350 350 350 349 348 348 348 347 346 344 341 340 338 338 339 337
291 285 286 285 285 288 291 294 290 292 293 293 297 293 294 296 314 320 324 326 334 336 339 342 344 341 337 341 342 344 346 347 347 347 347 346 345 345 345 344 344 343 340 337 335 334 334 333 332
294 291 285 286 284 285 291 291 295 293 293 299 300 290 293 297 302 314 318 323 330 335 338 340 343 344 343 342 334 337 340 341 342 342 340 337 338 339 339 336 339 340 337 334 330 328 326 327 324
294 287 284 285 286 288 292 289 294 294 293 295 297 294 296 300 308 318 319 322 330 334 337 338 340 342 343 341 336 332 334 335 335 334 331 330 338 337 334 332 334 335 333 331 327 325 322 321 320
289 284 285 290 291 290 292 292 292 290 291 292 293 297 298 300 312 317 319 323 328 330 335 338 340 341 341 340 339 337 335 337 337 336 335 335 334 333 330 327 328 329 327 328 325 322 317 308 302
285 282 289 290 292 292 291 291 294 292 290 293 292 295 295 295 297 306 319 325 326 331 334 337 337 340 339 338 335 334 335 334 334 334 331 329 326 325 326 325 324 322 318 319 315 310 299 297 299
278 282 283 285 287 287 285 286 284 287 291 297 296 295 295 296 296 299 313 319 321 323 331 336 336 336 338 335 334 334 333 332 331 329 327 324 323 321 321 319 317 316 310 306 304 300 299 298 299
279 281 284 285 285 285 286 283 283 284 288 290 291 296 297 296 296 297 305 320 323 323 327 334 336 335 336 333 332 332 331 330 329 326 326 324 320 319 317 314 313 311 309 304 299 299 299 298 298
281 281 281 283 283 283 281 282 283 285 287 287 289 290 294 295 295 297 298 303 320 322 325 333 335 335 335 334 332 330 329 328 328 326 323 322 319 317 315 311 308 306 306 302 300 299 298 299 299
281 277 279 279 280 279 281 277 277 283 286 286 287 289 292 295 295 296 298 303 319 323 326 331 333 335 333 331 329 328 328 326 325 323 321 320 319 316 314 310 306 304 300 300 300 299 298 299 299
277 276 271 278 279 280 279 271 279 283 283 283 286 287 289 293 294 296 297 297 303 320 323 327 331 332 331 330 329 328 326 326 323 319 318 317 317 314 312 310 306 302 301 300 299 299 298 297 296
275 269 271 274 280 279 277 273 279 283 282 282 283 285 287 290 293 295 296 296 298 308 321 324 329 328 329 329 328 327 325 326 322 319 317 316 316 314 312 309 305 302 300 300 299 297 297 295 294
270 271 272 272 276 278 276 275 279 281 282 281 282 282 283 286 291 294 296 297 296 303 319 323 326 326 328 327 326 326 325 325 322 318 316 313 312 313 311 307 303 301 299 297 296 296 296 295 294
275 274 272 274 278 277 275 275 277 280 281 280 281 282 283 285 289 292 295 296 297 297 315 320 320 323 326 323 320 321 320 321 321 318 316 314 312 310 308 306 303 301 300 299 298 295 294 293 293
276 274 273 276 279 278 276 274 278 279 280 280 280 280 281 283 286 288 291 295 295 295 311 318 320 322 323 323 322 321 321 320 321 319 316 314 310 309 307 306 303 301 299 298 296 295 293 293 295
274 273 274 274 277 277 275 273 275 278 280 281 282 282 283 283 284 286 288 291 293 293 301 315 318 320 321 321 320 316 318 316 316 316 315 312 310 308 308 306 304 302 301 298 297 296 295 292 293
270 277 276 275 272 267 275 265 273 276 276 278 279 281 282 283 285 286 287 289 290 292 295 310 316 319 319 321 317 315 314 312 314 313 314 313 310 308 307 306 304 302 301 300 299 298 296 294 293
272 276 275 274 271 270 270 267 270 274 273 275 279 280 282 284 284 285 287 289 291 292 293 305 316 318 318 319 318 316 315 315 315 313 312 311 310 309 305 305 303 302 301 301 300 298 296 294 293
276 274 272 268 267 259 268 266 268 270 273 275 280 280 281 283 284 285 288 289 289 292 294 301 313 316 316 318 317 316 314 314 311 311 310 309 308 306 304 304 303 302 302 300 300 299 298 296 294
270 264 258 256 254 258 270 268 268 272 274 275 276 281 281 281 282 283 284 285 287 288 291 300 306 312 315 316 316 316 315 314 311 311 311 308 306 306 304 303 302 302 302 301 300 299 298 297 295
267 271 265 259 259 262 270 263 268 275 276 276 277 279 281 281 282 282 283 283 284 285 286 288 292 300 309 313 314 316 316 315 313 312 311 309 307 306 306 304 304 302 301 300 300 298 298 297 296
266 266 273 267 258 258 266 271 273 274 273 274 274 277 278 279 282 282 283 283 283 283 284 287 289 290 292 295 303 311 313 313 312 311 311 310 309 307 305 304 303 302 301 300 299 298 294 296 296
271 276 266 263 259 255 262 264 264 267 269 272 272 274 276 277 279 281 282 282 282 282 281 282 284 286 288 290 292 294 298 308 310 309 308 307 307 306 302 295 294 292 295 296 297 294 291 293 292
266 268 271 270 266 259 258 258 270 268 270 270 272 273 274 275 276 280 281 282 281 281 281 281 280 283 285 286 288 290 292 295 303 305 307 301 295 295 295 295 291 291 291 290 293 293 293 293 292
271 272 272 264 261 265 263 261 272 271 271 271 271 272 273 275 276 278 279 279 280 281 281 282 283 283 284 285 286 287 289 290 289 294 296 296 297 296 294 294 294 292 291 292 294 291 291 293 291
Wind_Speed
5 3 3 5 3 3 5 9 4 6 4 8 7 5 8 16 9 8 5 9 8 11 13 17 20 22 21 20 21 21 20 19 20 19 18 19 18 19 19 18 18 17 18 19 19 17 16 13 12
2 2 4 3 4 3 9 8 12 24 20 6 5 6 6 13 5 4 3 5 7 15 15 17 17 20 21 22 20 20 20 19 20 20 19 19 19 18 19 17 16 17 19 19 18 16 15 14 13
1 1 4 5 5 14 15 11 24 27 12 8 5 9 6 7 6 6 7 11 8 13 15 16 21 22 21 21 22 21 20 19 19 20 20 20 20 19 18 18 17 17 19 19 17 16 15 14 14
2 3 3 4 17 23 20 4 12 7 6 9 5 10 7 10 4 10 9 11 11 11 14 17 21 22 22 22 21 21 21 20 20 21 21 21 21 20 19 19 18 17 17 19 18 18 15 14 14
3 2 4 6 24 24 14 11 10 12 6 6 3 11 7 8 7 8 10 11 13 9 11 14 22 23 22 22 22 21 21 21 21 23 22 22 21 22 20 19 19 18 18 17 17 18 16 13 14
2 2 3 18 23 28 18 20 5 13 15 23 7 13 13 7 5 9 9 11 12 14 10 14 16 19 21 21 21 21 21 21 21 23 23 22 22 23 22 20 21 21 20 19 17 17 17 14 13
4 3 17 16 22 25 33 10 14 23 25 29 7 15 7 5 11 9 9 8 13 14 14 15 15 14 15 17 18 20 21 20 20 22 23 24 23 22 23 22 21 21 21 21 18 17 16 14 13
3 3 11 15 22 33 25 7 16 19 27 23 13 9 12 8 9 8 3 5 7 10 13 16 16 15 14 13 15 15 17 17 18 19 19 17 20 21 21 18 20 21 21 19 19 16 15 15 15
2 8 18 31 30 28 13 14 17 9 18 16 17 6 7 12 3 4 4 2 5 7 11 12 15 15 14 13 12 14 15 16 17 15 16 14 11 14 16 14 19 20 19 20 19 16 14 13 12
4 11 29 27 18 18 20 21 16 10 22 22 16 15 7 10 8 7 8 9 11 14 14 13 14 15 13 11 12 11 9 9 11 13 16 10 12 11 12 12 17 18 17 18 19 18 14 8 5
5 19 17 22 20 20 23 28 14 21 29 28 17 18 9 6 10 13 9 12 18 15 13 13 14 14 13 10 8 6 5 6 6 14 12 12 10 9 8 7 7 9 9 7 9 8 4 7 5
12 17 19 22 20 19 20 26 21 19 30 18 17 12 10 13 9 11 15 9 8 10 15 18 15 11 14 7 8 8 8 8 8 9 16 12 8 8 8 7 8 7 5 7 5 4 5 6 6
12 17 16 18 22 21 19 25 25 27 25 22 22 24 25 17 12 9 13 13 11 11 12 16 16 13 13 12 8 8 8 8 10 11 12 13 13 11 9 7 8 7 8 7 5 5 5 6 6
9 18 20 19 19 22 24 27 23 25 17 23 22 24 19 16 14 14 13 16 12 12 11 14 15 15 14 13 14 9 9 9 9 11 12 12 12 11 11 8 6 6 6 7 6 5 5 5 5
11 14 18 24 25 24 23 26 29 26 20 21 19 21 19 19 15 19 15 9 11 12 12 14 15 15 15 14 13 10 9 9 9 10 14 15 13 14 13 9 7 7 5 7 6 5 4 4 3
12 12 13 23 18 18 16 22 25 19 18 21 20 16 18 13 12 16 13 9 8 10 13 13 12 14 14 13 13 11 10 10 9 9 11 14 12 12 15 9 8 7 7 6 6 6 5 5 4
5 13 19 26 20 19 17 22 23 19 19 18 16 17 18 16 16 13 12 11 9 9 10 12 14 15 14 12 11 12 14 11 10 9 10 14 13 12 14 10 7 8 7 6 7 4 6 5 4
19 17 22 25 32 18 23 23 24 24 25 21 20 9 10 14 19 17 15 13 8 8 10 13 12 16 15 10 10 9 11 11 10 10 10 15 12 14 11 11 10 8 7 6 4 6 3 3 5
19 19 24 31 28 20 24 22 25 25 21 20 19 16 13 16 13 14 14 12 14 8 10 11 15 13 13 9 9 9 11 10 11 10 13 15 13 14 12 10 12 9 9 9 9 4 6 3 3
20 21 24 27 21 16 17 27 24 23 21 20 16 15 12 13 15 16 12 13 10 10 10 10 12 15 12 11 9 6 8 8 11 11 12 13 15 15 13 13 11 12 9 9 9 7 5 3 7
21 17 22 24 23 19 19 28 20 25 22 22 21 20 18 18 17 18 14 10 9 10 9 11 11 15 15 14 9 4 5 4 5 7 9 11 14 16 17 17 14 12 11 11 12 10 8 5 7
17 11 21 24 17 16 8 16 19 14 15 15 17 17 17 19 18 17 16 13 9 11 9 12 12 13 12 16 12 15 11 8 7 8 8 10 14 15 14 15 16 14 10 11 12 10 8 5 11
13 18 19 23 20 14 6 7 1 5 6 12 15 17 17 16 17 16 14 12 11 8 9 13 15 15 13 16 17 13 13 9 6 8 11 11 11 13 13 14 14 15 11 12 13 12 9 5 7
17 10 23 4 3 1 8 7 5 7 12 16 13 16 11 11 14 13 13 8 8 6 6 10 15 16 16 17 16 17 15 11 9 11 10 8 9 10 12 14 14 14 13 14 12 12 13 11 7
6 7 6 8 6 7 7 9 3 11 15 14 18 14 13 11 10 10 9 7 8 11 8 3 7 14 15 17 16 17 15 13 13 13 11 12 9 9 12 14 14 12 13 13 12 12 12 11 9
7 4 2 8 7 19 14 5 5 9 10 14 15 14 12 12 10 11 11 8 8 10 10 9 8 5 7 16 16 14 15 10 10 12 10 10 10 11 14 14 14 14 13 12 12 10 10 11 9
7 2 5 7 4 3 5 3 7 21 16 16 17 15 15 14 11 11 11 11 10 10 11 8 7 10 11 10 7 4 7 10 11 14 13 10 10 9 12 14 14 14 14 14 13 10 10 10 10
4 5 4 2 6 6 6 2 8 21 19 18 16 15 15 14 12 9 10 11 10 11 9 9 9 11 9 9 7 5 6 4 7 10 12 12 10 11 12 9 8 8 9 11 13 8 7 10 7
6 1 2 3 4 4 5 4 6 12 13 14 13 14 13 13 12 7 9 10 10 9 8 8 8 10 9 8 6 6 5 5 5 6 9 9 8 9 10 11 9 9 10 9 11 10 11 13 10
6 3 4 2 5 3 3 5 4 7 11 13 13 14 14 12 12 9 9 12 11 10 11 10 8 11 10 7 5 4 4 4 3 3 7 7 10 10 12 12 12 12 12 12 13 12 11 14 13
Wind_Direction
328 22 72 49 79 72 237 238 256 258 255 210 194 176 201 226 219 220 299 206 133 134 167 176 177 175 172 165 158 157 157 161 162 162 157 152 151 148 146 142 142 143 143 141 136 141 137 133 124
31 124 50 82 133 212 237 201 222 233 223 254 280 279 272 259 254 248 136 220 172 145 161 174 176 177 172 163 161 159 159 163 166 165 161 158 155 152 149 145 146 151 149 148 148 145 140 135 131
312 115 106 153 194 226 241 201 224 237 244 239 270 193 236 232 251 203 212 146 152 153 161 175 175 175 175 169 162 164 164 164 168 168 166 160 156 155 153 150 152 155 154 143 144 146 146 140 133
178 27 3 189 227 243 240 237 233 279 268 226 220 267 268 222 218 195 159 146 149 162 167 171 178 176 173 171 168 168 167 167 169 170 169 163 160 157 156 153 154 156 156 145 147 143 144 145 138
16 78 209 226 242 250 234 249 256 270 268 233 230 258 265 298 266 167 156 150 153 163 171 173 176 176 173 172 171 170 172 170 170 171 170 166 164 155 156 154 150 153 144 146 147 143 141 147 132
267 117 208 228 237 246 251 243 246 249 260 263 256 263 258 280 201 213 168 166 164 163 161 176 176 174 173 172 174 171 174 174 171 170 168 167 162 155 152 151 148 146 139 147 148 144 142 141 131
190 165 230 242 244 257 247 218 231 241 252 258 280 277 264 281 229 253 199 161 167 164 159 173 177 175 174 174 175 174 173 174 173 170 168 164 164 156 150 150 149 141 149 149 148 145 141 136 125
182 240 254 244 246 254 258 258 252 245 263 275 257 239 270 260 246 197 257 165 149 162 165 174 179 173 176 180 173 175 174 172 170 169 166 161 153 152 147 144 147 146 148 148 144 142 139 133 123
358 239 237 239 240 247 291 269 272 314 282 295 291 225 263 288 215 151 145 113 141 163 175 171 177 178 177 180 183 177 178 172 164 161 149 153 147 143 140 149 144 147 148 147 142 138 133 124 112
210 239 238 252 268 263 281 274 288 309 283 276 280 286 324 341 332 245 185 179 176 179 182 178 180 180 178 179 179 184 190 189 177 163 153 149 142 141 138 142 145 144 146 143 142 136 131 115 104
243 253 275 273 294 300 295 285 298 257 262 260 281 284 293 336 324 303 273 189 181 185 175 176 187 176 177 177 168 169 166 149 169 158 141 133 125 133 135 137 136 138 130 139 127 127 121 119 121
289 280 288 291 290 294 291 298 289 290 272 287 276 268 276 283 280 282 276 256 204 190 184 182 182 197 169 171 172 163 166 159 159 155 143 140 133 140 139 142 144 142 124 116 118 125 122 124 126
275 284 281 294 297 289 286 280 285 275 288 289 304 287 272 269 270 260 271 259 242 215 191 181 179 186 176 175 175 167 162 160 165 155 153 154 147 151 149 151 149 143 135 138 134 133 134 133 129
270 279 280 281 279 286 284 279 275 274 298 289 284 283 290 266 261 270 270 266 229 225 210 186 193 187 173 176 173 171 161 156 167 166 152 168 148 150 153 149 148 134 145 146 137 143 139 137 131
267 290 285 277 270 273 277 279 270 279 273 270 262 271 276 273 278 261 254 251 246 224 203 194 190 189 182 178 170 164 164 154 165 170 156 161 161 157 144 150 157 144 142 132 121 122 109 108 110
284 285 281 272 271 264 259 274 280 283 283 272 265 270 270 271 273 267 248 231 247 236 208 195 191 190 182 175 175 166 161 161 168 162 154 158 156 168 139 154 160 151 143 144 141 143 124 128 129
198 274 280 284 268 270 263 273 273 270 275 278 274 261 262 271 262 265 260 249 226 237 231 199 184 189 186 178 179 174 164 168 161 169 165 162 159 164 146 149 150 152 145 149 155 136 132 145 138
290 284 280 276 285 280 276 269 269 273 271 271 262 255 278 278 261 258 261 263 244 217 228 212 186 187 181 171 179 175 173 170 164 166 169 161 158 160 154 144 147 153 148 140 134 138 96 125 136
276 272 273 276 275 273 271 272 266 265 263 262 261 253 248 257 274 273 258 246 263 233 208 222 199 186 170 174 176 189 190 171 169 176 176 167 161 156 153 149 151 157 166 167 158 130 131 100 128
283 279 282 282 286 279 279 267 261 261 250 245 244 250 244 242 261 266 274 241 239 240 214 209 194 173 180 178 175 184 184 192 180 176 173 174 163 159 157 151 166 166 158 157 162 147 132 123 181
283 277 285 285 300 284 268 272 259 258 254 254 256 251 244 245 250 259 255 248 225 239 214 209 203 179 178 177 160 118 154 147 182 180 171 182 169 164 164 167 165 172 171 173 175 166 165 143 198
285 297 294 289 296 294 32 292 283 257 255 253 253 246 240 242 239 246 254 247 207 222 227 213 208 188 186 156 167 170 182 178 195 182 179 179 181 177 175 171 167 170 173 179 180 178 174 143 181
277 306 293 291 287 290 300 253 199 295 316 347 325 272 247 243 235 233 240 247 250 207 214 210 203 192 174 166 171 178 189 196 174 172 171 182 190 184 173 168 172 172 176 180 180 181 176 168 161
309 300 302 343 306 312 261 179 322 14 339 341 333 349 289 257 250 234 238 244 265 282 247 219 198 194 174 167 177 181 191 194 173 181 168 180 187 184 177 173 175 178 180 178 182 186 190 186 172
33 344 313 345 353 235 279 288 351 2 355 342 333 349 356 359 28 19 17 26 21 7 356 328 227 190 175 170 179 185 186 187 182 186 183 172 165 196 195 178 179 181 184 184 176 180 187 191 188
290 268 334 305 320 301 298 235 112 27 358 344 341 346 1 8 29 37 24 21 36 23 3 8 26 35 182 169 178 187 191 185 188 185 180 187 189 191 186 193 187 184 182 181 179 181 187 190 195
291 339 259 273 293 340 273 46 234 356 357 356 349 354 356 358 20 36 40 30 27 35 26 12 46 54 40 40 31 168 176 188 187 187 185 185 184 186 188 194 191 187 181 180 180 182 182 185 192
153 303 330 345 304 310 304 39 331 347 347 350 350 356 356 349 351 28 42 41 24 34 13 10 23 61 50 42 35 29 18 228 181 170 180 180 180 177 177 175 179 168 176 174 178 178 167 179 185
340 319 308 263 242 269 304 277 333 355 336 341 348 349 350 347 344 355 47 38 31 35 27 19 25 50 44 36 18 16 357 352 277 176 184 168 150 159 167 173 166 171 173 176 180 181 173 188 187
185 239 287 256 289 252 278 268 22 358 338 346 354 353 355 350 350 3 32 44 32 26 29 27 32 50 39 28 13 21 354 348 345 231 180 164 167 172 171 172 184 184 184 184 190 180 182 191 193